Time,TemperatureF,DewpointF,PressureIn,WindDirection,WindDirectionDegrees,WindSpeedMPH,WindSpeedGustMPH,Humidity,HourlyPrecipIn,Conditions,Clouds,dailyrainin,SolarRadiationWatts/m^2,SoftwareType,DateUTC
2013-01-08 00:22:00,29.0,24.0,-100.00,NNW,347,1.0,2.0,81,0.00,,,0.00,0.000000,,2013-01-08 05:22:00,
2013-01-08 00:33:00,29.0,24.0,-100.00,NNW,347,1.0,2.0,81,0.00,,,0.00,0.000000,,2013-01-08 05:33:00,
2013-01-08 00:43:00,29.0,24.0,-100.00,NNW,347,1.0,2.0,81,0.00,,,0.00,0.000000,,2013-01-08 05:43:00,
2013-01-08 00:53:00,29.0,24.0,-100.00,NNW,347,1.0,2.0,81,0.00,,,0.00,0.000000,,2013-01-08 05:53:00,
2013-01-08 01:02:00,29.0,24.0,-100.00,NNW,347,1.0,2.0,81,0.00,,,0.00,0.000000,,2013-01-08 06:02:00,
2013-01-08 01:23:00,28.0,24.0,-100.00,NNE,31,0.0,1.0,85,0.00,,,0.00,0.000000,,2013-01-08 06:23:00,
2013-01-08 01:33:00,28.0,24.0,-100.00,NNE,31,0.0,1.0,85,0.00,,,0.00,0.000000,,2013-01-08 06:33:00,
2013-01-08 01:43:00,28.0,24.0,-100.00,NNE,31,0.0,1.0,85,0.00,,,0.00,0.000000,,2013-01-08 06:43:00,
2013-01-08 01:53:00,28.0,24.0,-100.00,NNE,31,0.0,1.0,85,0.00,,,0.00,0.000000,,2013-01-08 06:53:00,
2013-01-08 02:02:00,28.0,24.0,-100.00,NNE,31,0.0,1.0,85,0.00,,,0.00,0.000000,,2013-01-08 07:02:00,
2013-01-08 02:32:00,28.0,23.0,-100.00,North,350,2.0,5.0,80,0.00,,,0.00,0.000000,,2013-01-08 07:32:00,
2013-01-08 02:42:00,28.0,23.0,-100.00,North,350,2.0,5.0,80,0.00,,,0.00,0.000000,,2013-01-08 07:42:00,
2013-01-08 02:52:00,28.0,23.0,-100.00,North,350,2.0,5.0,80,0.00,,,0.00,0.000000,,2013-01-08 07:52:00,
2013-01-08 03:02:00,28.0,23.0,-100.00,North,350,2.0,5.0,80,0.00,,,0.00,0.000000,,2013-01-08 08:02:00,
2013-01-08 03:22:00,27.0,23.0,-100.00,NNE,19,0.0,3.0,85,0.00,,,0.00,0.000000,,2013-01-08 08:22:00,
2013-01-08 03:32:00,27.0,23.0,-100.00,NNE,19,0.0,3.0,85,0.00,,,0.00,0.000000,,2013-01-08 08:32:00,
2013-01-08 03:42:00,27.0,23.0,-100.00,NNE,19,0.0,3.0,85,0.00,,,0.00,0.000000,,2013-01-08 08:42:00,
2013-01-08 03:53:00,27.0,23.0,-100.00,NNE,19,0.0,3.0,85,0.00,,,0.00,0.000000,,2013-01-08 08:53:00,
2013-01-08 04:02:00,27.0,23.0,-100.00,NNE,19,0.0,3.0,85,0.00,,,0.00,0.000000,,2013-01-08 09:02:00,
2013-01-08 04:22:00,27.0,23.0,-100.00,ENE,60,0.0,2.0,83,0.00,,,0.00,0.000000,,2013-01-08 09:22:00,
2013-01-08 04:33:00,27.0,23.0,-100.00,ENE,60,0.0,2.0,83,0.00,,,0.00,0.000000,,2013-01-08 09:33:00,
2013-01-08 04:42:00,27.0,23.0,-100.00,ENE,60,0.0,2.0,83,0.00,,,0.00,0.000000,,2013-01-08 09:42:00,
2013-01-08 04:53:00,27.0,23.0,-100.00,ENE,60,0.0,2.0,83,0.00,,,0.00,0.000000,,2013-01-08 09:53:00,
2013-01-08 05:02:00,27.0,23.0,-100.00,ENE,60,0.0,2.0,83,0.00,,,0.00,0.000000,,2013-01-08 10:02:00,
2013-01-08 05:33:00,26.0,23.0,-100.00,North,1,0.0,2.0,87,0.00,,,0.00,0.000000,,2013-01-08 10:33:00,
2013-01-08 05:43:00,26.0,23.0,-100.00,North,1,0.0,2.0,87,0.00,,,0.00,0.000000,,2013-01-08 10:43:00,
2013-01-08 05:53:00,26.0,23.0,-100.00,North,1,0.0,2.0,87,0.00,,,0.00,0.000000,,2013-01-08 10:53:00,
2013-01-08 06:02:00,26.0,23.0,-100.00,North,1,0.0,2.0,87,0.00,,,0.00,0.000000,,2013-01-08 11:02:00,
2013-01-08 06:33:00,27.0,23.0,-100.00,North,357,1.0,2.0,85,0.00,,,0.00,0.000000,,2013-01-08 11:33:00,
2013-01-08 06:43:00,27.0,23.0,-100.00,North,357,1.0,2.0,85,0.00,,,0.00,0.000000,,2013-01-08 11:43:00,
2013-01-08 06:53:00,27.0,23.0,-100.00,North,357,1.0,2.0,85,0.00,,,0.00,0.000000,,2013-01-08 11:53:00,
2013-01-08 07:03:00,27.0,23.0,-100.00,North,357,1.0,2.0,85,0.00,,,0.00,0.000000,,2013-01-08 12:03:00,
2013-01-08 07:33:00,26.0,22.0,-100.00,North,4,1.0,3.0,85,0.00,,,0.00,0.000000,,2013-01-08 12:33:00,
2013-01-08 07:43:00,26.0,22.0,-100.00,North,4,1.0,3.0,85,0.00,,,0.00,0.000000,,2013-01-08 12:43:00,
2013-01-08 07:53:00,26.0,22.0,-100.00,North,4,1.0,3.0,85,0.00,,,0.00,0.000000,,2013-01-08 12:53:00,
2013-01-08 08:03:00,26.0,22.0,-100.00,North,4,1.0,3.0,85,0.00,,,0.00,0.000000,,2013-01-08 13:03:00,
2013-01-08 08:33:00,27.0,23.0,-100.00,SW,231,0.0,5.0,85,0.00,,,0.00,6.000000,,2013-01-08 13:33:00,
2013-01-08 08:43:00,27.0,23.0,-100.00,SW,231,0.0,5.0,85,0.00,,,0.00,6.000000,,2013-01-08 13:43:00,
2013-01-08 08:53:00,27.0,23.0,-100.00,SW,231,0.0,5.0,85,0.00,,,0.00,6.000000,,2013-01-08 13:53:00,
2013-01-08 09:02:00,27.0,23.0,-100.00,SW,231,0.0,5.0,85,0.00,,,0.00,6.000000,,2013-01-08 14:02:00,
2013-01-08 09:33:00,35.0,32.0,-100.00,NNW,343,0.0,0.0,87,0.00,,,0.00,69.000000,,2013-01-08 14:33:00,
2013-01-08 09:43:00,35.0,32.0,-100.00,NNW,343,0.0,0.0,87,0.00,,,0.00,69.000000,,2013-01-08 14:43:00,
2013-01-08 09:53:00,35.0,32.0,-100.00,NNW,343,0.0,0.0,87,0.00,,,0.00,69.000000,,2013-01-08 14:53:00,
2013-01-08 10:03:00,35.0,32.0,-100.00,NNW,343,0.0,0.0,87,0.00,,,0.00,69.000000,,2013-01-08 15:03:00,
2013-01-08 10:23:00,42.0,33.0,-100.00,South,183,3.0,4.0,69,0.00,,,0.00,266.000000,,2013-01-08 15:23:00,
2013-01-08 10:33:00,42.0,33.0,-100.00,South,183,3.0,4.0,69,0.00,,,0.00,266.000000,,2013-01-08 15:33:00,
2013-01-08 10:43:00,42.0,33.0,-100.00,South,183,3.0,4.0,69,0.00,,,0.00,266.000000,,2013-01-08 15:43:00,
2013-01-08 10:53:00,42.0,33.0,-100.00,South,183,3.0,4.0,69,0.00,,,0.00,266.000000,,2013-01-08 15:53:00,
2013-01-08 11:03:00,42.0,33.0,-100.00,South,183,3.0,4.0,69,0.00,,,0.00,266.000000,,2013-01-08 16:03:00,
2013-01-08 11:34:00,44.0,31.0,-100.00,SSW,208,4.0,6.0,60,0.00,,,0.00,285.000000,,2013-01-08 16:34:00,
2013-01-08 11:43:00,44.0,31.0,-100.00,SSW,208,4.0,6.0,60,0.00,,,0.00,285.000000,,2013-01-08 16:43:00,
2013-01-08 11:53:00,44.0,31.0,-100.00,SSW,208,4.0,6.0,60,0.00,,,0.00,285.000000,,2013-01-08 16:53:00,
2013-01-08 12:03:00,44.0,31.0,-100.00,SSW,208,4.0,6.0,60,0.00,,,0.00,285.000000,,2013-01-08 17:03:00,
2013-01-08 12:04:00,47.0,33.0,-100.00,SW,227,5.0,7.0,57,0.00,,,0.00,352.000000,,2013-01-08 17:04:00,
2013-01-08 12:34:00,47.0,33.0,-100.00,SW,227,5.0,7.0,57,0.00,,,0.00,352.000000,,2013-01-08 17:34:00,
2013-01-08 12:43:00,47.0,33.0,-100.00,SW,227,5.0,7.0,57,0.00,,,0.00,352.000000,,2013-01-08 17:43:00,
2013-01-08 12:54:00,47.0,33.0,-100.00,SW,227,5.0,7.0,57,0.00,,,0.00,352.000000,,2013-01-08 17:54:00,
2013-01-08 13:24:00,49.0,32.0,-100.00,SSE,166,3.0,7.0,51,0.00,,,0.00,463.000000,,2013-01-08 18:24:00,
2013-01-08 13:33:00,49.0,32.0,-100.00,SSE,166,3.0,7.0,51,0.00,,,0.00,463.000000,,2013-01-08 18:33:00,
2013-01-08 13:43:00,49.0,32.0,-100.00,SSE,166,3.0,7.0,51,0.00,,,0.00,463.000000,,2013-01-08 18:43:00,
2013-01-08 13:53:00,49.0,32.0,-100.00,SSE,166,3.0,7.0,51,0.00,,,0.00,463.000000,,2013-01-08 18:53:00,
2013-01-08 14:03:00,49.0,32.0,-100.00,SSE,166,3.0,7.0,51,0.00,,,0.00,463.000000,,2013-01-08 19:03:00,
2013-01-08 14:33:00,48.0,32.0,-100.00,SW,228,4.0,7.0,53,0.00,,,0.00,185.000000,,2013-01-08 19:33:00,
2013-01-08 14:43:00,48.0,32.0,-100.00,SW,228,4.0,7.0,53,0.00,,,0.00,185.000000,,2013-01-08 19:43:00,
2013-01-08 14:53:00,48.0,32.0,-100.00,SW,228,4.0,7.0,53,0.00,,,0.00,185.000000,,2013-01-08 19:53:00,
2013-01-08 15:03:00,48.0,32.0,-100.00,SW,228,4.0,7.0,53,0.00,,,0.00,185.000000,,2013-01-08 20:03:00,
2013-01-08 15:23:00,50.0,34.0,-100.00,West,272,3.0,6.0,53,0.00,,,0.00,172.000000,,2013-01-08 20:23:00,
2013-01-08 15:33:00,50.0,34.0,-100.00,West,272,3.0,6.0,53,0.00,,,0.00,172.000000,,2013-01-08 20:33:00,
2013-01-08 15:43:00,50.0,34.0,-100.00,West,272,3.0,6.0,53,0.00,,,0.00,172.000000,,2013-01-08 20:43:00,
2013-01-08 15:54:00,50.0,34.0,-100.00,West,272,3.0,6.0,53,0.00,,,0.00,172.000000,,2013-01-08 20:54:00,
2013-01-08 16:03:00,50.0,34.0,-100.00,West,272,3.0,6.0,53,0.00,,,0.00,172.000000,,2013-01-08 21:03:00,
2013-01-08 16:33:00,51.0,34.0,-100.00,SW,234,4.0,6.0,53,0.00,,,0.00,259.000000,,2013-01-08 21:33:00,
2013-01-08 16:43:00,51.0,34.0,-100.00,SW,234,4.0,6.0,53,0.00,,,0.00,259.000000,,2013-01-08 21:43:00,
2013-01-08 16:53:00,51.0,34.0,-100.00,SW,234,4.0,6.0,53,0.00,,,0.00,259.000000,,2013-01-08 21:53:00,
2013-01-08 17:03:00,51.0,34.0,-100.00,SW,234,4.0,6.0,53,0.00,,,0.00,259.000000,,2013-01-08 22:03:00,
2013-01-08 17:33:00,48.0,35.0,-100.00,North,352,0.0,4.0,60,0.00,,,0.00,53.000000,,2013-01-08 22:33:00,
2013-01-08 17:43:00,48.0,35.0,-100.00,North,352,0.0,4.0,60,0.00,,,0.00,53.000000,,2013-01-08 22:43:00,
2013-01-08 17:53:00,48.0,35.0,-100.00,North,352,0.0,4.0,60,0.00,,,0.00,53.000000,,2013-01-08 22:53:00,
2013-01-08 18:03:00,48.0,35.0,-100.00,North,352,0.0,4.0,60,0.00,,,0.00,53.000000,,2013-01-08 23:03:00,
2013-01-08 18:33:00,45.0,36.0,-100.00,NNW,339,0.0,0.0,70,0.00,,,0.00,6.000000,,2013-01-08 23:33:00,
2013-01-08 18:43:00,45.0,36.0,-100.00,NNW,339,0.0,0.0,70,0.00,,,0.00,6.000000,,2013-01-08 23:43:00,
2013-01-08 18:53:00,45.0,36.0,-100.00,NNW,339,0.0,0.0,70,0.00,,,0.00,6.000000,,2013-01-08 23:53:00,
2013-01-08 19:03:00,45.0,36.0,-100.00,NNW,339,0.0,0.0,70,0.00,,,0.00,6.000000,,2013-01-09 00:03:00,
2013-01-08 19:33:00,44.0,37.0,-100.00,NE,46,0.0,0.0,75,0.00,,,0.00,0.000000,,2013-01-09 00:33:00,
2013-01-08 19:43:00,44.0,37.0,-100.00,NE,46,0.0,0.0,75,0.00,,,0.00,0.000000,,2013-01-09 00:43:00,
2013-01-08 19:53:00,44.0,37.0,-100.00,NE,46,0.0,0.0,75,0.00,,,0.00,0.000000,,2013-01-09 00:53:00,
2013-01-08 20:02:00,44.0,37.0,-100.00,NE,46,0.0,0.0,75,0.00,,,0.00,0.000000,,2013-01-09 01:02:00,
2013-01-08 20:33:00,44.0,37.0,-100.00,ESE,123,0.0,0.0,76,0.00,,,0.00,0.000000,,2013-01-09 01:33:00,
2013-01-08 20:43:00,44.0,37.0,-100.00,ESE,123,0.0,0.0,76,0.00,,,0.00,0.000000,,2013-01-09 01:43:00,
2013-01-08 20:53:00,44.0,37.0,-100.00,ESE,123,0.0,0.0,76,0.00,,,0.00,0.000000,,2013-01-09 01:53:00,
2013-01-08 21:02:00,44.0,37.0,-100.00,ESE,123,0.0,0.0,76,0.00,,,0.00,0.000000,,2013-01-09 02:02:00,
2013-01-08 21:33:00,41.0,35.0,-100.00,West,278,2.0,5.0,79,0.00,,,0.00,0.000000,,2013-01-09 02:33:00,
2013-01-08 21:43:00,41.0,35.0,-100.00,West,278,2.0,5.0,79,0.00,,,0.00,0.000000,,2013-01-09 02:43:00,
2013-01-08 21:53:00,41.0,35.0,-100.00,West,278,2.0,5.0,79,0.00,,,0.00,0.000000,,2013-01-09 02:53:00,
2013-01-08 22:03:00,41.0,35.0,-100.00,West,278,2.0,5.0,79,0.00,,,0.00,0.000000,,2013-01-09 03:03:00,
2013-01-08 22:33:00,38.0,35.0,-100.00,North,359,1.0,4.0,89,0.00,,,0.00,0.000000,,2013-01-09 03:33:00,
2013-01-08 22:43:00,38.0,35.0,-100.00,North,359,1.0,4.0,89,0.00,,,0.00,0.000000,,2013-01-09 03:43:00,
2013-01-08 22:53:00,38.0,35.0,-100.00,North,359,1.0,4.0,89,0.00,,,0.00,0.000000,,2013-01-09 03:53:00,
2013-01-08 23:02:00,38.0,35.0,-100.00,North,359,1.0,4.0,89,0.00,,,0.00,0.000000,,2013-01-09 04:02:00,
2013-01-08 23:23:00,39.0,35.0,-100.00,NE,39,0.0,4.0,86,0.00,,,0.00,0.000000,,2013-01-09 04:23:00,
2013-01-08 23:33:00,39.0,35.0,-100.00,NE,39,0.0,4.0,86,0.00,,,0.00,0.000000,,2013-01-09 04:33:00,
2013-01-08 23:43:00,39.0,35.0,-100.00,NE,39,0.0,4.0,86,0.00,,,0.00,0.000000,,2013-01-09 04:43:00,
2013-01-08 23:52:00,39.0,35.0,-100.00,NE,39,0.0,4.0,86,0.00,,,0.00,0.000000,,2013-01-09 04:52:00,